• In Czech Republic
  • List of Countries
  • For 7 days
  • Water Temperature
  • Satellite Maps
  • Weather Map
  • Weather Widgets
  • user-avatar
    Login

    Hourly Weather Tri Rutki

    Today, 23 April, Monday

    Time Temperature Precipitation Wind Pressure Humidity
    00:00 -5°C° 0.3 mm 6 mps 738 mmHg 85%
    01:00 -5°C° 0.2 mm 6 mps 739 mmHg 85%
    02:00 -5°C° 0.2 mm 6 mps 739 mmHg 85%
    03:00 -5°C° 0 mm 6 mps 740 mmHg 79%
    04:00 -5°C° 0.2 mm 6 mps 741 mmHg 79%
    05:00 -5°C° 0.2 mm 6 mps 741 mmHg 79%
    06:00 -5°C° 0.2 mm 6 mps 741 mmHg 80%
    07:00 -5°C° 0.2 mm 6 mps 742 mmHg 78%
    08:00 -5°C° 0.2 mm 6 mps 742 mmHg 75%
    09:00 -4°C° 0.2 mm 6 mps 743 mmHg 73%
    10:00 -4°C° 0.2 mm 6 mps 743 mmHg 71%
    11:00 -3°C° 0.2 mm 6 mps 744 mmHg 70%
    12:00 -3°C° 0.2 mm 6 mps 744 mmHg 68%
    13:00 -2°C° 0.2 mm 6 mps 744 mmHg 68%
    14:00 -2°C° 0.2 mm 6 mps 745 mmHg 67%
    15:00 0°C° 0.2 mm 5 mps 745 mmHg 66%
    16:00 0°C° 0.1 mm 5 mps 746 mmHg 68%
    17:00 0°C° 0.1 mm 5 mps 746 mmHg 69%
    18:00 -1°C° 0.1 mm 5 mps 747 mmHg 71%
    19:00 -1°C° 0.1 mm 5 mps 747 mmHg 74%
    20:00 -2°C° 0.1 mm 4 mps 747 mmHg 77%
    21:00 -2°C° 0.1 mm 4 mps 747 mmHg 80%
    22:00 -2°C° 0 mm 4 mps 748 mmHg 80%
    23:00 -3°C° 0 mm 4 mps 748 mmHg 80%

    Tomorrow, 24 April, Tuesday

    Time Temperature Precipitation Wind Pressure Humidity
    00:00 -3°C° 0 mm 4 mps 748 mmHg 80%
    01:00 -3°C° 0 mm 4 mps 748 mmHg 81%
    02:00 -4°C° 0 mm 4 mps 748 mmHg 82%
    03:00 -4°C° 0 mm 4 mps 749 mmHg 83%
    04:00 -5°C° 0 mm 5 mps 749 mmHg 82%
    05:00 -5°C° 0 mm 5 mps 749 mmHg 81%
    06:00 -5°C° 0 mm 5 mps 749 mmHg 80%
    07:00 -4°C° 0 mm 5 mps 750 mmHg 75%
    08:00 -2°C° 0 mm 5 mps 750 mmHg 71%
    09:00 -1°C° 0 mm 5 mps 750 mmHg 67%
    10:00 0°C° 0 mm 5 mps 750 mmHg 64%
    11:00 +1°C° 0 mm 4 mps 751 mmHg 61%
    12:00 +3°C° 0 mm 4 mps 751 mmHg 58%
    13:00 +3°C° 0 mm 4 mps 751 mmHg 58%
    14:00 +3°C° 0 mm 4 mps 751 mmHg 57%
    15:00 +4°C° 0 mm 4 mps 751 mmHg 57%
    16:00 +3°C° 0 mm 3 mps 751 mmHg 61%
    17:00 +4°C° 0 mm 2 mps 752 mmHg 64%
    18:00 +4°C° 0 mm 2 mps 752 mmHg 68%
    19:00 +3°C° 0 mm 1 mps 752 mmHg 73%
    20:00 +2°C° 0 mm 1 mps 752 mmHg 79%
    21:00 0°C° 0 mm 1 mps 752 mmHg 84%
    22:00 0°C° 0 mm 1 mps 753 mmHg 86%
    23:00 -1°C° 0 mm 1 mps 753 mmHg 87%

    Day after tomorrow, 25 April, Wednesday

    Time Temperature Precipitation Wind Pressure Humidity
    00:00 -2°C° 0 mm 0 mps 753 mmHg 88%
    01:00 -2°C° 0 mm 0 mps 753 mmHg 88%
    02:00 -1°C° 0 mm 1 mps 753 mmHg 89%
    03:00 -1°C° 0 mm 1 mps 753 mmHg 89%
    04:00 -1°C° 0 mm 1 mps 753 mmHg 86%
    05:00 0°C° 0 mm 1 mps 753 mmHg 82%
    06:00 +1°C° 0 mm 1 mps 753 mmHg 79%
    07:00 +3°C° 0 mm 1 mps 753 mmHg 71%
    08:00 +4°C° 0 mm 2 mps 753 mmHg 63%
    09:00 +5°C° 0 mm 2 mps 753 mmHg 55%
    10:00 +6°C° 0 mm 2 mps 752 mmHg 52%
    11:00 +8°C° 0 mm 2 mps 752 mmHg 49%
    12:00 +9°C° 0 mm 2 mps 752 mmHg 46%
    13:00 +9°C° 0 mm 3 mps 752 mmHg 46%
    14:00 +9°C° 0 mm 3 mps 751 mmHg 46%
    15:00 +10°C° 0 mm 3 mps 751 mmHg 46%
    16:00 +9°C° 0 mm 3 mps 751 mmHg 52%
    17:00 +8°C° 0 mm 2 mps 750 mmHg 58%
    18:00 +7°C° 0 mm 2 mps 750 mmHg 64%
    19:00 +6°C° 0 mm 2 mps 750 mmHg 67%
    20:00 +4°C° 0 mm 3 mps 750 mmHg 71%
    21:00 +3°C° 0 mm 3 mps 750 mmHg 74%
    22:00 +3°C° 0.1 mm 3 mps 749 mmHg 76%
    23:00 +3°C° 0.1 mm 3 mps 749 mmHg 78%

    26 April, Thursday

    Time Temperature Precipitation Wind Pressure Humidity
    00:00 +2°C° 0.1 mm 3 mps 748 mmHg 81%
    01:00 +2°C° 0.1 mm 3 mps 748 mmHg 82%
    02:00 +2°C° 0.1 mm 3 mps 747 mmHg 84%
    03:00 +2°C° 0.1 mm 3 mps 747 mmHg 86%
    04:00 +2°C° 0.1 mm 3 mps 747 mmHg 87%
    05:00 +2°C° 0.1 mm 3 mps 746 mmHg 88%
    06:00 +2°C° 0.1 mm 3 mps 746 mmHg 88%
    07:00 +4°C° 0 mm 2 mps 746 mmHg 87%
    08:00 +5°C° 0 mm 2 mps 746 mmHg 86%
    09:00 +6°C° 0 mm 2 mps 746 mmHg 84%
    10:00 +6°C° 0 mm 2 mps 746 mmHg 82%
    11:00 +8°C° 0 mm 1 mps 746 mmHg 79%
    12:00 +9°C° 0 mm 1 mps 745 mmHg 77%
    13:00 +9°C° 0 mm 1 mps 745 mmHg 76%
    14:00 +10°C° 0 mm 1 mps 745 mmHg 75%
    15:00 +10°C° 0 mm 1 mps 745 mmHg 74%
    16:00 +10°C° 0 mm 1 mps 745 mmHg 77%
    17:00 +9°C° 0 mm 0 mps 744 mmHg 79%
    18:00 +8°C° 0 mm 0 mps 744 mmHg 81%
    19:00 +7°C° 0 mm 0 mps 745 mmHg 84%
    20:00 +6°C° 0 mm 0 mps 745 mmHg 88%
    21:00 +5°C° 0 mm 0 mps 745 mmHg 92%
    22:00 +5°C° 0 mm 0 mps 745 mmHg 93%
    23:00 +6°C° 0 mm 1 mps 745 mmHg 94%

    27 April, Friday

    Time Temperature Precipitation Wind Pressure Humidity
    00:00 +6°C° 0 mm 1 mps 745 mmHg 95%
    01:00 +6°C° 0 mm 1 mps 746 mmHg 95%
    02:00 +5°C° 0 mm 1 mps 746 mmHg 96%
    03:00 +4°C° 0 mm 2 mps 747 mmHg 97%
    04:00 +5°C° 0 mm 2 mps 747 mmHg 96%
    05:00 +5°C° 0 mm 2 mps 747 mmHg 95%
    06:00 +4°C° 0 mm 3 mps 748 mmHg 94%
    07:00 +7°C° 0 mm 3 mps 748 mmHg 86%
    08:00 +9°C° 0 mm 3 mps 749 mmHg 78%
    09:00 +11°C° 0 mm 4 mps 749 mmHg 71%
    10:00 +12°C° 0.1 mm 4 mps 750 mmHg 65%
    11:00 +13°C° 0.1 mm 5 mps 750 mmHg 60%
    12:00 +14°C° 0.1 mm 5 mps 750 mmHg 54%
    13:00 +15°C° 0.1 mm 5 mps 751 mmHg 50%
    14:00 +15°C° 0.1 mm 5 mps 751 mmHg 46%
    15:00 +15°C° 0.1 mm 5 mps 752 mmHg 42%
    16:00 +15°C° 0 mm 4 mps 752 mmHg 46%
    17:00 +14°C° 0 mm 3 mps 752 mmHg 51%
    18:00 +14°C° 0 mm 2 mps 752 mmHg 55%
    19:00 +13°C° 0 mm 2 mps 752 mmHg 60%
    20:00 +12°C° 0 mm 2 mps 752 mmHg 65%
    21:00 +9°C° 0 mm 2 mps 752 mmHg 70%
    22:00 +9°C° 0.1 mm 2 mps 752 mmHg 73%
    23:00 +9°C° 0.1 mm 2 mps 752 mmHg 75%

    28 April, Saturday

    Time Temperature Precipitation Wind Pressure Humidity
    00:00 +9°C° 0.1 mm 2 mps 752 mmHg 78%
    01:00 +9°C° 0.3 mm 2 mps 752 mmHg 82%
    02:00 +8°C° 0.3 mm 3 mps 751 mmHg 85%
    03:00 +8°C° 0.3 mm 3 mps 751 mmHg 89%
    04:00 +8°C° 0.6 mm 3 mps 751 mmHg 90%
    05:00 +8°C° 0.6 mm 3 mps 750 mmHg 91%
    06:00 +8°C° 0.6 mm 3 mps 750 mmHg 92%
    07:00 +8°C° 0.8 mm 3 mps 749 mmHg 91%
    08:00 +7°C° 0.8 mm 4 mps 749 mmHg 90%
    09:00 +7°C° 0.8 mm 4 mps 749 mmHg 90%
    10:00 +9°C° 0.1 mm 5 mps 749 mmHg 81%
    11:00 +10°C° 0.1 mm 5 mps 750 mmHg 72%
    12:00 +11°C° 0.1 mm 6 mps 750 mmHg 63%
    13:00 +13°C° 0.2 mm 6 mps 750 mmHg 59%
    14:00 +13°C° 0.2 mm 6 mps 751 mmHg 55%
    15:00 +14°C° 0.2 mm 6 mps 751 mmHg 52%
    16:00 +13°C° 0.2 mm 5 mps 751 mmHg 55%
    17:00 +12°C° 0.2 mm 4 mps 752 mmHg 59%
    18:00 +12°C° 0.2 mm 3 mps 752 mmHg 62%
    19:00 +10°C° 0 mm 3 mps 752 mmHg 67%
    20:00 +9°C° 0 mm 3 mps 753 mmHg 71%
    21:00 +8°C° 0 mm 3 mps 753 mmHg 76%
    22:00 +7°C° 0 mm 3 mps 754 mmHg 77%
    23:00 +7°C° 0 mm 3 mps 754 mmHg 79%
    Show more